TimeMST,TemperatureF,Dew PointF,Humidity,Sea Level PressureIn,VisibilityMPH,Wind Direction,Wind SpeedMPH,Gust SpeedMPH,PrecipitationIn,Events,Conditions,WindDirDegrees,DateUTC
12:15 AM,35.6,6.8,30,29.75,10.0,WNW,19.6,31.1,N/A,,Clear,290,2014-02-20 07:15:00
12:35 AM,33.8,8.6,35,29.74,10.0,WNW,27.6,36.8,N/A,,Clear,290,2014-02-20 07:35:00
12:55 AM,33.8,8.6,35,29.75,10.0,WNW,23.0,31.1,N/A,,Clear,290,2014-02-20 07:55:00
1:15 AM,33.8,6.8,32,29.75,10.0,WNW,25.3,36.8,N/A,,Clear,290,2014-02-20 08:15:00
1:35 AM,32.0,5.0,32,29.76,10.0,WNW,20.7,29.9,N/A,,Clear,290,2014-02-20 08:35:00
1:55 AM,30.2,6.8,37,29.76,10.0,WNW,19.6,28.8,N/A,,Clear,290,2014-02-20 08:55:00
2:15 AM,30.2,3.2,32,29.76,10.0,WNW,23.0,-,N/A,,Clear,290,2014-02-20 09:15:00
2:35 AM,28.4,1.4,31,29.77,10.0,WNW,19.6,-,N/A,,Clear,290,2014-02-20 09:35:00
2:55 AM,28.4,-0.4,29,29.79,10.0,WNW,16.1,24.2,N/A,,Clear,300,2014-02-20 09:55:00
3:15 AM,26.6,-0.4,31,29.81,10.0,NW,11.5,-,N/A,,Clear,320,2014-02-20 10:15:00
3:35 AM,24.8,-0.4,34,29.83,10.0,NNW,9.2,-,N/A,,Clear,330,2014-02-20 10:35:00
3:55 AM,24.8,-0.4,34,29.83,10.0,WNW,13.8,-,N/A,,Clear,300,2014-02-20 10:55:00
4:15 AM,24.8,-0.4,34,29.84,10.0,West,18.4,23.0,N/A,,Clear,280,2014-02-20 11:15:00
4:35 AM,24.8,-0.4,34,29.87,10.0,WNW,13.8,-,N/A,,Clear,290,2014-02-20 11:35:00
4:55 AM,23.0,-0.4,36,29.88,10.0,West,13.8,-,N/A,,Clear,280,2014-02-20 11:55:00
5:15 AM,23.0,-0.4,36,29.90,10.0,WNW,13.8,-,N/A,,Clear,290,2014-02-20 12:15:00
5:35 AM,21.2,-0.4,39,29.91,10.0,WNW,13.8,-,N/A,,Clear,290,2014-02-20 12:35:00
5:55 AM,21.2,-0.4,39,29.92,10.0,WNW,15.0,-,N/A,,Clear,290,2014-02-20 12:55:00
6:15 AM,21.2,-0.4,39,29.94,10.0,WNW,13.8,-,N/A,,Clear,290,2014-02-20 13:15:00
6:35 AM,21.2,1.4,42,29.95,10.0,WNW,12.7,-,N/A,,Clear,290,2014-02-20 13:35:00
6:55 AM,21.2,1.4,42,29.96,10.0,WNW,13.8,-,N/A,,Clear,290,2014-02-20 13:55:00
7:15 AM,19.4,1.4,46,29.97,10.0,WNW,9.2,-,N/A,,Clear,300,2014-02-20 14:15:00
7:35 AM,21.2,1.4,42,29.99,10.0,NW,9.2,-,N/A,,Clear,310,2014-02-20 14:35:00
7:55 AM,24.8,1.4,36,30.00,10.0,WNW,15.0,-,N/A,,Clear,290,2014-02-20 14:55:00
8:15 AM,24.8,-0.4,34,30.02,10.0,NW,16.1,-,N/A,,Clear,310,2014-02-20 15:15:00
8:35 AM,26.6,-0.4,31,30.03,10.0,NW,15.0,-,N/A,,Clear,320,2014-02-20 15:35:00
8:55 AM,26.6,1.4,34,30.03,10.0,North,12.7,18.4,N/A,,Clear,350,2014-02-20 15:55:00
9:15 AM,28.4,1.4,31,30.04,10.0,North,11.5,20.7,N/A,,Clear,10,2014-02-20 16:15:00
9:35 AM,28.4,1.4,31,30.04,10.0,NW,18.4,-,N/A,,Clear,310,2014-02-20 16:35:00
9:55 AM,30.2,-2.2,25,30.05,10.0,NW,16.1,25.3,N/A,,Clear,310,2014-02-20 16:55:00
10:15 AM,30.2,-2.2,25,30.06,10.0,NW,13.8,24.2,N/A,,Clear,320,2014-02-20 17:15:00
10:35 AM,30.2,-2.2,25,30.06,10.0,WNW,12.7,26.5,N/A,,Clear,300,2014-02-20 17:35:00
10:55 AM,32.0,-0.4,25,30.07,10.0,NW,16.1,23.0,N/A,,Partly Cloudy,310,2014-02-20 17:55:00
11:15 AM,33.8,-2.2,22,30.08,10.0,WNW,18.4,25.3,N/A,,Scattered Clouds,290,2014-02-20 18:15:00
11:35 AM,33.8,-2.2,22,30.08,10.0,NW,19.6,25.3,N/A,,Scattered Clouds,310,2014-02-20 18:35:00
11:55 AM,35.6,-4.0,18,30.08,10.0,WNW,13.8,23.0,N/A,,Partly Cloudy,290,2014-02-20 18:55:00
12:15 PM,35.6,-4.0,18,30.08,10.0,WNW,13.8,26.5,N/A,,Clear,300,2014-02-20 19:15:00
12:35 PM,35.6,-4.0,18,30.07,10.0,NW,19.6,29.9,N/A,,Partly Cloudy,310,2014-02-20 19:35:00
12:55 PM,35.6,-4.0,18,30.07,10.0,NW,20.7,31.1,N/A,,Partly Cloudy,310,2014-02-20 19:55:00
1:15 PM,35.6,-5.8,17,30.07,10.0,NNW,18.4,25.3,N/A,,Scattered Clouds,330,2014-02-20 20:15:00
1:35 PM,37.4,-5.8,16,30.06,10.0,NW,19.6,31.1,N/A,,Partly Cloudy,320,2014-02-20 20:35:00
1:55 PM,37.4,-5.8,16,30.06,10.0,WNW,18.4,28.8,N/A,,Partly Cloudy,300,2014-02-20 20:55:00
2:15 PM,37.4,-5.8,16,30.06,10.0,WNW,20.7,32.2,N/A,,Clear,300,2014-02-20 21:15:00
2:35 PM,37.4,-5.8,16,30.06,10.0,WNW,21.9,32.2,N/A,,Clear,290,2014-02-20 21:35:00
2:55 PM,37.4,-5.8,16,30.06,10.0,WNW,21.9,27.6,N/A,,Clear,290,2014-02-20 21:55:00
3:15 PM,37.4,-5.8,16,30.07,10.0,NW,19.6,24.2,N/A,,Clear,310,2014-02-20 22:15:00
3:35 PM,37.4,-5.8,16,30.08,10.0,WNW,16.1,23.0,N/A,,Clear,300,2014-02-20 22:35:00
3:55 PM,37.4,-5.8,16,30.09,10.0,West,16.1,25.3,N/A,,Clear,280,2014-02-20 22:55:00
4:15 PM,37.4,-5.8,16,30.09,10.0,West,15.0,24.2,N/A,,Clear,280,2014-02-20 23:15:00
4:35 PM,37.4,-5.8,16,30.09,10.0,WNW,12.7,24.2,N/A,,Clear,300,2014-02-20 23:35:00
4:55 PM,35.6,-5.8,17,30.09,10.0,West,19.6,-,N/A,,Clear,280,2014-02-20 23:55:00
5:15 PM,35.6,-5.8,17,30.10,10.0,West,18.4,23.0,N/A,,Clear,280,2014-02-21 00:15:00
5:35 PM,33.8,-5.8,18,30.11,10.0,West,15.0,-,N/A,,Clear,280,2014-02-21 00:35:00
5:55 PM,30.2,-7.6,19,30.12,10.0,West,10.4,-,N/A,,Clear,280,2014-02-21 00:55:00
6:15 PM,28.4,-7.6,21,30.13,10.0,West,8.1,-,N/A,,Clear,260,2014-02-21 01:15:00
6:35 PM,24.8,-7.6,24,30.14,10.0,North,5.8,-,N/A,,Clear,350,2014-02-21 01:35:00
6:55 PM,26.6,-5.8,24,30.15,10.0,WNW,3.5,-,N/A,,Clear,300,2014-02-21 01:55:00
7:15 PM,26.6,-5.8,24,30.15,10.0,Calm,Calm,-,N/A,,Clear,0,2014-02-21 02:15:00
7:35 PM,21.2,-7.6,28,30.16,10.0,SSW,10.4,-,N/A,,Clear,210,2014-02-21 02:35:00
7:55 PM,23.0,-5.8,28,30.16,10.0,WSW,10.4,-,N/A,,Clear,240,2014-02-21 02:55:00
8:15 PM,21.2,-7.6,28,30.16,10.0,West,6.9,-,N/A,,Clear,270,2014-02-21 03:15:00
8:35 PM,21.2,-5.8,30,30.17,10.0,Calm,Calm,-,N/A,,Clear,0,2014-02-21 03:35:00
8:55 PM,24.8,-5.8,26,30.17,10.0,Calm,Calm,-,N/A,,Clear,0,2014-02-21 03:55:00
9:15 PM,24.8,-5.8,26,30.16,10.0,Calm,Calm,-,N/A,,Clear,0,2014-02-21 04:15:00
9:35 PM,24.8,-5.8,26,30.16,10.0,Calm,Calm,-,N/A,,Clear,0,2014-02-21 04:35:00
9:55 PM,24.8,-5.8,26,30.17,10.0,Calm,Calm,-,N/A,,Clear,0,2014-02-21 04:55:00
10:15 PM,19.4,-5.8,33,30.17,10.0,Calm,Calm,-,N/A,,Clear,0,2014-02-21 05:15:00
10:35 PM,17.6,-5.8,35,30.16,10.0,SSE,3.5,-,N/A,,Clear,150,2014-02-21 05:35:00
10:55 PM,17.6,-5.8,35,30.15,10.0,ESE,4.6,-,N/A,,Clear,110,2014-02-21 05:55:00
11:15 PM,17.6,-2.2,42,30.16,10.0,ESE,5.8,-,N/A,,Clear,110,2014-02-21 06:15:00
11:35 PM,17.6,-2.2,42,30.15,10.0,East,5.8,-,N/A,,Clear,100,2014-02-21 06:35:00
11:55 PM,19.4,-2.2,39,30.15,10.0,ESE,4.6,-,N/A,,Clear,120,2014-02-21 06:55:00